Regional Weather Roundup
Issued by NWS Jackson, KY

Home | Current Version | Previous Version | Text Only | Print | Product List | Glossary On
Versions: 1 2 3 4 5 6 7 8 9 10 11 12 13 14 15 16 17 18 19 20 21 22 23 24 25 26 27 28 29 30 31 32 33 34 35 36 37 38 39 40 41 42 43 44 45 46 47 48 49 50
000
ASUS43 KJKL 021310
RWRJKL

EAST KENTUCKY HOURLY WEATHER ROUNDUP
NATIONAL WEATHER SERVICE JACKSON KY
900 AM EDT WED SEP 02 2015

NOTE: "FAIR" INDICATES FEW OR NO CLOUDS BELOW 12,000 FEET WITH
NO SIGNIFICANT WEATHER AND/OR OBSTRUCTIONS TO VISIBILITY.

* THESE REPORTS ARE NOT UNDER NWS QUALITY CONTROL AND MAY NOT
  REPORT WEATHER SUCH AS PRECIPITATION AND FOG.

KYZ079-080-083-085-087-088-110-112-115-119-120-021400
...EASTERN KENTUCKY...

CITY           SKY/WX    TMP DP  RH WIND       PRES   REMARKS
JACKSON        SUNNY     72  68  87 CALM      30.18S
LONDON         SUNNY     71  65  81 CALM      30.18R
SOMERSET*      SUNNY     68  68 100 CALM      30.18S
MONTICELLO*    SUNNY     71  71 100 CALM      30.20R FOG
WILLIAMSBURG*  CLOUDY    64  64 100 CALM      30.18S
MIDDLESBORO*   CLOUDY    66  66 100 CALM      30.20R FOG
HAZARD APT*    MOSUNNY   68  68 100 CALM      30.18S
BLACK MTN*       N/A     72  64  78 N1          N/A
BIG SANDY*     SUNNY     72  69  92 CALM      30.17F
MOREHEAD APT*  SUNNY     70  68  94 CALM      30.19S
$$

KYZ035-036-041-042-044-050-067-078-099-021400
...CENTRAL KENTUCKY...

CITY           SKY/WX    TMP DP  RH WIND       PRES   REMARKS
MT STERLING*   SUNNY     72  70  94 CALM      30.18S
FLEMING/MASON* SUNNY     72  68  88 CALM      30.17
DANVILLE*      SUNNY     70  64  83 CALM      30.18S
RICHMOND*      SUNNY     70  64  83 CALM      30.17R
LEXINGTON      SUNNY     73  67  81 CALM      30.17R
FRANKFORT      SUNNY     73  67  81 CALM      30.15R
$$

KYZ091>093-OHZ055-061-077-WVZ005-015-034-035-042-021400
...SOUTHERN OHIO/WEST VIRGINIA...

CITY           SKY/WX    TMP DP  RH WIND       PRES   REMARKS
COVINGTON      SUNNY     73  69  87 CALM      30.15R
COLUMBUS       MOSUNNY   73  67  81 CALM      30.13R HAZE
DAYTON         MOSUNNY   71  68  90 SW7       30.15S
WILMINGTON     SUNNY     72  67  84 CALM      30.15R HAZE
HUNTINGTON     SUNNY     69  68  96 S3        30.15R FOG
CHARLESTON     MOSUNNY   68  67  96 CALM      30.15R
PINEVILLE*     FOG       66  66 100 MISG      30.25S VSB 1
BECKLEY        SUNNY     71  64  78 CALM      30.23S
BLUEFIELD      MOSUNNY   72  63  73 W5        30.25S
$$

VAZ002-007-008-TNZ017-027-036-066-071-021400
...SOUTHWEST VIRGINIA/EAST TENNESSEE...

CITY           SKY/WX    TMP DP  RH WIND       PRES   REMARKS
WISE*          SUNNY     72  68  88 CALM      30.25S
JONESVILLE*    SUNNY     68  64  88 CALM      30.21S
ABINGDON*      SUNNY     72  65  79 E6        30.21S
BRISTOL        MOSUNNY   71  67  87 CALM      30.19S
KNOXVILLE      CLOUDY    72  70  93 CALM      30.15R
OAK RIDGE      PTSUNNY   72  68  87 CALM      30.17R
CROSSVILLE     PTSUNNY   70  67  90 CALM      30.21R FOG
NASHVILLE      CLOUDY    76  69  79 CALM      30.14S
$$

...KEY TO REMARKS...
VSB - VISIBILITY IN MILES
WCI - WIND CHILL INDEX
HX  - HEAT INDEX

$$


USA.gov is the U.S. government's official web portal to all federal, state and local government web resources and services.